This is the latest recevied weather packets stored in our database for station/object AD8BV. If no packets are shown the sender has not sent any weather packets the latest 10 day(s).
| Time | Temp. | Humidity | Pressure | Rain* | Wind** | Luminosity | Snow |
|---|---|---|---|---|---|---|---|
| 1778032286 | 8.33° C | 65% | 1010.3 hPa | 0 mm | - | 0 W/m² | - |
| 1778031984 | 8.33° C | 66% | 1010.3 hPa | 0 mm | - | 0 W/m² | - |
| 1778031679 | 8.33° C | 64% | 1010.3 hPa | 0 mm | - | 0 W/m² | - |
| 1778031378 | 8.33° C | 65% | 1010.4 hPa | 0 mm | - | 0 W/m² | - |
| 1778031074 | 8.33° C | 63% | 1010.4 hPa | 0 mm | - | 0 W/m² | - |
| 1778030770 | 8.33° C | 63% | 1010.1 hPa | 0 mm | - | 0 W/m² | - |
| 1778030466 | 8.33° C | 64% | 1010 hPa | 0 mm | - | 0 W/m² | - |
| 1778030164 | 8.33° C | 60% | 1010.1 hPa | 0 mm | - | 0 W/m² | - |
| 1778029860 | 8.89° C | 62% | 1010 hPa | 0 mm | - | 0 W/m² | - |
| 1778029554 | 8.89° C | 63% | 1010 hPa | 0 mm | - | 0 W/m² | - |
| 1778029250 | 8.89° C | 61% | 1010 hPa | 0 mm | - | 0 W/m² | - |
| 1778028948 | 9.44° C | 60% | 1009.9 hPa | 0 mm | - | 0 W/m² | - |
| 1778028643 | 9.44° C | 58% | 1010 hPa | 0 mm | - | 0 W/m² | - |
| 1778028341 | 9.44° C | 58% | 1010 hPa | 0 mm | - | 0 W/m² | - |
| 1778028038 | 9.44° C | 57% | 1010 hPa | 0 mm | - | 0 W/m² | - |
| 1778027734 | 9.44° C | 58% | 1010.1 hPa | 0 mm | - | 1 W/m² | - |
| 1778027430 | 9.44° C | 56% | 1010.1 hPa | 0 mm | - | 2 W/m² | - |
| 1778027126 | 9.44° C | 57% | 1010.1 hPa | 0 mm | - | 3 W/m² | - |
| 1778026822 | 9.44° C | 59% | 1010.1 hPa | 0 mm | - | 4 W/m² | - |
| 1778026519 | 10° C | 59% | 1010 hPa | 0 mm | - | 6 W/m² | - |
| 1778026216 | 10° C | 60% | 1010.1 hPa | 0 mm | - | 9 W/m² | - |
| 1778025914 | 10° C | 56% | 1010.1 hPa | 0 mm | - | 6 W/m² | - |
| 1778025611 | 10° C | 57% | 1010 hPa | 0 mm | - | 9 W/m² | - |
| 1778025309 | 10° C | 57% | 1010 hPa | 0 mm | - | 10 W/m² | - |
| 1778025005 | 10° C | 58% | 1010.2 hPa | 0 mm | - | 6 W/m² | - |
* Rain latest hour (hover to see other rain measurements)
** Current wind speed in m/s (hover to see current wind gust speed)